RH
51 49 47 45 42 38 33 31 30 27 24 19 16 14 14 16 18 19 19 19 19 20 22 24 26 30 33 37 47 58 66 68 64 58 58 58 58 60 65 70 73 82 90 92 94 93 97 103 99 93 83 73
52 52 51 50 48 45 42 39 38 37 34 30 25 21 17 15 15 17 16 16 15 15 16 17 18 19 21 24 29 38 47 55 58 56 57 58 58 58 62 64 65 73 84 87 88 84 87 98 102 104 98 85
53 53 52 52 51 50 48 46 45 44 42 40 36 31 26 22 19 18 18 17 15 15 15 14 14 15 15 17 17 21 27 33 40 44 50 56 57 56 59 62 60 65 78 85 86 81 78 87 96 102 105 98
55 55 54 54 53 52 51 51 50 49 49 48 46 42 38 32 27 23 22 20 19 17 16 15 14 14 14 15 15 14 16 18 21 25 32 41 47 48 51 57 57 58 71 83 85 81 76 79 87 90 96 100
54 55 55 55 55 55 54 54 54 54 54 54 53 52 49 44 38 32 28 26 25 23 20 17 15 15 14 14 14 14 13 14 14 14 16 21 27 31 36 43 49 50 61 82 89 84 77 73 80 83 85 91
47 51 53 53 54 55 56 55 56 57 57 57 57 57 56 54 51 45 40 34 30 28 26 23 20 18 16 14 14 14 14 13 13 13 11 12 13 16 19 24 32 37 46 72 88 87 82 73 73 79 81 85
28 35 42 47 50 52 54 55 56 57 59 60 60 60 59 58 58 56 51 45 39 34 31 28 26 23 21 19 16 14 14 14 14 14 13 11 11 11 12 12 15 21 27 48 72 79 78 73 70 75 77 80
20 20 22 28 35 42 47 50 53 54 56 58 60 62 62 62 61 60 57 53 48 43 39 35 32 30 28 25 22 19 16 16 15 15 15 13 12 12 11 11 10 12 13 24 46 56 57 57 60 68 74 77
28 25 22 19 19 23 29 36 43 48 51 53 55 58 61 64 65 64 63 59 56 52 48 44 40 37 34 32 29 26 22 20 19 17 16 14 14 14 13 13 12 12 11 14 27 34 32 32 37 47 60 69
28 29 30 28 25 20 17 18 23 30 38 44 48 51 53 58 63 67 68 66 63 59 56 53 49 45 41 38 35 33 30 25 23 22 20 17 15 15 14 14 13 14 13 14 23 26 19 17 18 24 35 47
24 25 27 28 30 29 26 22 17 16 19 25 33 40 45 48 53 58 64 69 69 67 64 61 57 53 49 45 42 39 37 33 29 26 25 23 19 18 17 17 16 16 16 16 22 23 17 14 13 13 19 26
19 21 23 24 25 26 28 28 27 23 18 15 16 21 28 35 42 47 53 59 64 68 68 67 64 60 56 53 50 45 42 40 37 33 30 29 26 23 21 20 20 19 20 20 22 23 18 14 14 13 14 16
14 15 16 18 21 22 23 24 25 27 26 24 19 15 14 17 24 32 40 46 51 57 61 65 67 66 63 59 56 53 50 46 43 40 36 34 33 30 27 25 24 23 24 24 25 25 22 17 15 15 14 15
15 14 14 13 14 16 18 20 21 22 23 25 25 24 21 16 14 15 20 28 35 42 49 54 59 64 66 64 63 60 57 53 51 48 43 40 38 36 34 31 29 28 28 29 30 29 27 23 20 18 17 17
14 14 15 14 13 13 13 14 16 18 20 21 22 23 25 25 23 18 15 14 16 23 31 40 47 53 58 62 64 64 62 58 56 54 51 48 44 41 40 38 35 33 33 34 35 34 32 29 26 24 22 21
14 13 13 13 13 14 14 13 13 13 15 17 19 20 21 23 25 26 25 21 17 14 14 20 29 39 47 52 57 60 61 60 58 57 56 54 50 47 45 44 42 39 38 38 39 40 38 35 32 30 28 27
16 15 14 13 13 12 13 13 14 14 13 13 14 15 18 19 21 23 26 27 27 24 20 16 15 19 27 35 43 50 54 57 58 57 56 55 54 52 49 48 48 45 43 43 43 42 42 41 39 36 34 32
15 15 15 14 14 13 13 12 12 13 13 14 13 13 14 15 17 19 21 23 26 29 30 28 24 19 16 17 22 29 37 44 51 54 55 54 53 53 51 49 49 49 48 47 48 46 46 45 43 42 39 37
16 15 15 15 15 15 14 14 13 12 12 12 13 13 14 13 13 14 15 17 20 23 26 29 31 29 26 21 17 16 17 21 29 38 45 49 51 50 50 50 49 49 49 49 49 49 50 49 46 44 43 42
17 17 16 16 17 16 16 15 15 14 13 13 12 12 12 13 13 13 13 13 13 15 18 21 24 26 28 28 27 24 20 17 15 17 22 29 36 40 43 44 45 46 48 49 50 50 50 50 48 46 46 45
17 17 17 17 17 17 17 17 16 16 16 16 15 14 13 12 12 12 13 13 13 12 13 14 16 18 21 24 27 28 28 27 24 20 17 16 17 20 24 28 32 36 39 44 47 49 50 50 49 48 47 47
17 17 17 17 17 17 16 16 17 17 18 18 17 16 15 14 13 12 12 12 12 13 13 13 13 13 15 17 20 23 26 28 29 29 27 24 21 17 16 15 16 19 22 27 32 38 42 45 47 49 48 48
16 16 15 15 15 15 15 14 14 15 15 16 16 15 15 14 14 14 14 13 12 12 12 13 13 13 13 13 14 16 18 21 24 26 27 28 28 27 26 22 18 15 14 14 16 19 23 28 33 38 42 44
13 13 13 12 12 12 12 12 12 12 12 12 12 13 13 14 15 15 15 15 14 13 12 12 12 13 14 14 14 14 14 15 16 19 22 24 26 27 29 30 30 28 24 20 16 14 13 14 16 19 23 27
11 11 11 10 10 10 10 10 10 11 11 11 11 11 11 11 12 14 14 15 15 15 14 14 13 13 13 13 14 14 15 15 14 14 15 17 20 22 24 26 29 32 32 31 28 26 23 19 17 15 13 13
9 9 9 9 9 9 9 9 9 10 10 11 11 11 11 10 11 11 12 13 13 15 15 15 15 15 15 14 13 14 14 15 15 16 15 14 15 16 19 20 22 25 29 31 32 34 36 34 30 25 21 17
8 8 8 8 8 8 9 9 9 9 10 10 11 11 11 11 11 10 11 11 11 12 13 14 16 16 16 16 15 15 14 15 15 16 16 16 16 15 15 16 17 19 21 25 27 30 35 38 38 37 34 30
7 7 8 8 8 8 8 8 8 9 9 10 10 11 12 11 10 10 10 11 11 12 12 13 14 15 16 16 16 16 16 16 15 16 16 16 17 16 16 16 16 16 15 18 20 23 27 30 35 40 40 40
7 7 7 7 7 7 7 7 7 8 8 9 10 11 11 11 10 9 9 10 10 10 11 12 13 13 14 14 15 17 17 17 16 16 17 17 17 17 17 17 17 17 16 15 15 17 20 22 27 33 36 40
5 5 6 5 5 5 5 5 6 6 6 7 8 9 10 9 9 9 9 9 9 10 10 10 11 12 12 13 13 14 15 16 16 16 17 17 18 18 18 17 17 18 18 18 16 15 15 17 19 23 28 33
4 4 4 4 5 4 4 4 4 5 5 5 6 7 7 7 7 7 7 8 9 9 9 9 10 10 11 11 12 13 13 14 14 15 16 16 17 18 18 19 18 18 17 18 18 17 16 15 15 17 19 23
Wind_Speed
117 116 116 116 116 116 115 114 113 113 113 113 112 111 109 108 107 106 105 104 103 103 102 102 102 102 102 102 101 102 102 102 101 100 98 97 96 94 94 93 91 90 93 94 92 89 88 88 87 87 87 86
118 118 118 118 118 118 118 117 116 116 115 115 114 114 113 112 111 109 108 107 106 105 104 104 103 103 103 103 103 102 103 104 104 103 101 100 99 98 97 96 94 93 95 97 96 93 91 90 90 90 90 89
119 119 120 120 120 120 120 119 119 118 118 117 117 117 116 116 114 113 112 111 110 108 107 106 105 105 104 104 104 104 104 105 105 104 103 102 102 101 100 99 98 96 96 98 99 97 94 93 93 93 93 93
120 120 121 121 121 121 121 121 121 121 120 120 119 119 118 118 118 117 116 115 114 112 111 110 109 108 107 107 106 106 105 105 106 105 104 104 103 103 102 101 100 99 98 100 100 100 98 96 96 96 96 96
121 122 122 123 123 123 123 123 123 123 123 122 122 121 121 120 120 120 119 119 118 116 115 114 113 111 110 110 109 108 108 107 107 107 106 105 105 104 103 102 102 101 99 101 103 102 102 100 99 99 98 98
123 124 124 124 125 125 125 125 125 125 125 125 124 124 123 122 122 122 122 122 121 120 119 118 117 115 114 113 112 112 111 110 109 109 108 106 105 105 104 103 103 103 101 102 105 105 105 103 101 101 101 100
121 123 125 126 127 127 127 127 127 127 127 127 127 126 126 125 124 124 124 124 124 123 123 122 120 119 118 117 116 115 114 113 112 111 111 109 107 106 105 104 104 104 102 103 106 108 108 107 104 103 103 103
116 119 122 125 127 128 129 129 129 129 129 128 128 128 128 128 127 127 127 127 126 126 125 125 124 123 122 121 120 119 118 116 115 114 114 112 110 109 107 106 105 105 103 103 107 110 110 109 107 106 106 105
113 115 117 119 122 125 128 130 131 131 131 131 130 130 130 130 129 129 129 129 129 128 128 127 127 126 125 124 123 122 122 120 119 118 117 116 114 112 110 109 108 107 105 105 109 112 111 110 109 108 108 107
116 116 116 117 118 120 123 126 129 131 132 133 133 133 132 132 131 131 131 131 130 130 129 129 129 129 128 127 126 125 125 124 122 121 120 119 117 115 113 112 111 109 108 107 110 113 112 110 110 109 109 109
118 119 119 119 119 119 120 121 123 126 129 132 134 135 135 134 133 133 132 132 132 131 131 131 131 130 130 130 129 129 128 127 126 124 123 123 121 119 117 115 114 113 111 110 112 115 114 111 110 110 110 110
119 120 121 121 122 122 122 122 122 123 124 127 130 133 135 136 136 135 135 134 134 134 133 132 132 132 132 131 131 131 131 130 129 128 126 126 125 123 121 119 117 116 115 114 115 117 117 114 113 112 112 111
117 119 120 122 123 124 124 124 124 124 124 124 125 127 130 133 135 136 137 137 136 136 135 135 134 134 134 133 133 133 133 132 131 131 130 129 128 126 125 123 121 120 118 117 117 118 119 117 115 115 114 114
117 118 119 120 122 123 125 126 127 127 127 126 126 126 126 128 130 133 135 137 138 138 138 138 137 136 136 135 135 135 135 134 134 133 133 132 131 130 128 127 125 123 122 121 120 120 121 120 119 118 117 116
117 118 119 119 120 121 123 125 126 128 128 129 129 128 128 127 128 129 130 133 135 137 138 139 139 139 138 138 137 137 137 137 136 135 135 134 133 132 131 130 129 127 126 124 123 123 123 123 122 120 120 119
117 118 119 120 120 121 122 122 124 125 127 128 129 130 130 130 129 129 129 129 130 133 135 137 139 140 140 140 139 139 139 139 139 137 137 136 136 135 134 133 132 130 129 127 126 126 126 127 126 124 123 122
117 117 118 119 120 121 122 122 123 123 124 126 127 129 130 131 131 131 131 130 129 130 131 132 134 137 139 141 141 141 141 140 140 140 140 139 138 138 137 135 134 133 132 130 130 129 129 129 129 127 126 125
117 117 117 117 118 119 121 122 123 123 123 124 125 126 127 129 130 132 132 132 131 131 130 130 131 132 134 136 138 140 141 142 142 142 142 142 141 140 139 138 137 136 134 133 132 132 131 132 132 131 130 128
119 119 118 118 118 119 119 120 121 122 123 124 125 125 126 127 128 129 131 132 132 132 132 132 132 132 131 131 133 134 137 139 141 142 143 144 143 142 142 141 140 138 137 136 135 134 134 134 135 134 133 131
121 121 121 121 121 121 121 121 121 121 122 123 124 126 126 127 127 127 128 130 131 132 132 133 134 134 134 133 132 132 132 134 135 137 140 142 143 144 144 143 142 141 140 139 138 137 136 137 137 136 135 134
121 121 122 122 122 123 123 123 123 123 123 123 124 124 125 126 126 127 127 128 128 129 131 132 134 135 136 136 135 135 134 133 133 133 134 136 138 140 142 143 142 142 142 141 140 140 139 139 139 138 137 137
120 121 121 122 122 123 124 124 125 125 126 126 125 124 124 123 124 125 126 127 128 128 129 130 131 132 134 135 136 136 136 136 135 134 133 133 134 135 136 138 139 140 141 141 141 141 141 141 141 141 140 140
118 120 120 121 121 122 122 122 122 123 124 125 125 125 124 123 122 123 124 125 126 127 128 128 129 130 131 132 133 135 136 137 137 137 136 135 134 134 133 134 134 135 136 137 137 138 139 140 141 142 143 143
116 118 118 118 118 118 118 118 118 119 119 120 121 122 123 123 123 124 124 124 125 125 126 127 128 129 130 130 131 132 133 135 136 137 138 138 137 137 135 135 134 133 133 133 133 133 134 135 137 139 141 142
113 114 115 116 115 114 114 114 115 115 116 117 118 119 119 121 122 123 124 125 125 125 125 126 127 128 129 130 130 131 131 132 133 134 135 137 137 138 138 138 137 136 135 134 133 132 132 131 132 133 135 136
108 109 110 111 111 110 110 110 110 111 112 114 115 116 117 118 119 120 122 123 124 125 126 126 126 127 128 129 130 131 131 131 131 132 133 134 135 136 137 138 139 138 138 137 135 134 133 132 132 132 132 132
103 104 104 104 104 105 105 105 105 106 107 109 111 113 115 117 118 118 119 120 121 123 124 125 126 127 128 129 129 130 130 131 131 131 132 132 132 133 134 135 137 139 139 139 139 138 137 135 134 133 132 131
99 100 100 100 99 99 99 100 100 101 102 103 106 109 112 114 115 115 115 116 117 118 120 121 123 125 127 128 128 129 129 129 130 131 131 132 132 132 132 132 133 136 137 138 139 140 140 138 137 136 135 133
96 97 96 96 96 95 95 96 97 98 98 99 102 105 109 111 111 110 110 111 112 113 115 117 119 121 123 125 126 127 129 129 130 130 131 132 132 132 132 132 132 133 134 135 137 139 140 140 140 139 138 137
93 93 93 93 93 93 93 93 93 95 96 97 99 103 106 108 108 108 108 109 110 111 112 113 115 118 120 121 123 125 127 129 130 130 130 131 131 132 132 133 132 132 132 133 134 135 137 138 139 140 140 140
89 89 89 90 90 91 91 90 90 91 92 94 96 100 104 105 105 105 106 107 109 110 110 111 113 115 117 118 120 123 125 127 128 129 130 130 131 131 132 133 133 133 133 133 134 134 134 135 136 137 139 141
Wind_Direction
259 259 259 258 258 258 258 258 258 258 258 258 258 258 256 255 254 253 253 252 252 251 251 251 251 251 251 250 249 249 249 249 249 248 247 247 246 246 246 245 244 244 246 246 245 243 243 244 244 243 242 240
258 258 258 257 257 257 257 257 257 257 257 257 257 257 257 256 255 254 253 252 252 251 250 250 250 250 250 250 249 249 249 248 248 248 247 246 246 245 245 245 244 243 245 245 245 243 242 242 243 243 243 241
256 256 256 256 256 256 256 256 256 256 256 256 256 256 256 256 256 255 255 254 253 252 251 250 249 249 249 249 249 248 248 248 248 247 247 246 246 245 244 244 243 243 244 245 245 244 242 241 242 242 243 243
255 255 255 255 255 255 255 255 255 255 255 255 255 255 255 255 255 255 255 255 254 253 252 251 249 249 248 248 248 248 248 248 248 247 246 246 246 245 245 244 243 242 243 244 245 244 243 241 241 241 242 242
255 254 254 254 254 254 254 254 254 254 254 254 254 253 253 254 254 254 255 255 254 254 253 252 251 250 249 248 247 247 247 247 247 247 246 246 245 245 244 244 244 243 242 244 245 245 244 242 241 241 241 241
255 254 254 254 253 253 253 253 253 253 253 253 253 253 252 252 253 253 253 254 254 253 253 253 252 252 251 249 248 247 247 247 247 247 247 246 246 245 245 244 244 243 242 243 245 245 245 243 241 241 241 241
255 254 254 254 253 253 253 252 252 252 252 252 252 252 252 252 251 251 252 252 253 253 253 253 252 252 252 251 250 249 248 247 247 247 247 246 246 245 245 244 244 243 243 243 245 245 245 244 242 242 241 241
255 254 254 254 253 253 252 252 252 252 251 251 251 251 251 251 251 251 251 251 251 252 252 252 252 252 252 252 251 251 250 249 248 248 248 247 246 246 245 245 245 244 243 243 244 245 245 244 243 242 242 242
255 254 254 254 253 253 253 252 252 252 251 251 251 251 250 250 251 251 251 251 251 251 251 251 252 252 251 251 251 251 251 251 250 249 249 248 247 246 246 246 245 245 244 244 245 245 245 245 244 243 243 242
255 255 254 254 254 253 253 252 252 252 251 251 251 250 250 250 250 250 250 250 250 250 250 250 251 251 251 251 251 251 251 251 251 250 250 250 249 248 247 247 246 246 245 244 245 246 245 245 245 244 244 243
256 255 255 254 254 253 253 253 252 252 251 251 251 251 250 250 250 249 249 249 250 250 250 250 250 250 251 251 251 251 251 251 251 251 251 251 250 249 248 248 247 247 246 245 245 246 246 245 245 245 245 244
255 255 255 254 254 253 253 253 252 252 252 251 251 251 251 250 250 249 249 249 249 249 249 249 250 250 250 250 250 251 251 251 251 251 250 251 251 250 249 248 248 247 247 246 245 246 247 246 246 246 246 245
256 255 254 254 254 254 253 253 253 252 252 252 252 251 251 251 250 250 249 249 249 249 249 249 249 249 249 250 250 250 250 250 250 250 250 250 250 250 250 249 249 248 247 247 246 246 247 247 247 246 246 246
256 255 255 254 254 253 253 253 253 252 252 252 252 251 251 251 251 250 250 249 249 249 249 248 248 248 248 249 249 249 249 249 250 250 250 250 250 250 250 249 249 249 248 247 247 247 247 248 247 247 247 247
255 255 255 254 254 253 253 253 253 252 252 252 252 251 251 251 251 250 250 250 250 249 249 248 248 248 248 248 248 248 249 249 249 249 249 249 249 249 249 249 249 248 248 248 247 247 248 248 248 247 247 247
255 254 254 254 253 253 253 253 252 252 252 252 252 252 251 251 251 250 250 250 250 250 249 249 248 248 248 248 248 248 248 249 249 249 248 249 249 249 249 249 248 248 248 247 247 247 247 248 248 247 247 247
256 255 254 254 254 253 253 253 252 252 252 252 252 252 251 251 251 250 250 250 250 250 250 250 249 248 248 248 248 248 248 249 249 249 249 249 249 249 249 248 248 248 248 247 247 247 247 248 248 248 247 247
259 258 257 256 255 254 254 253 253 253 252 252 251 251 251 251 251 251 250 250 250 249 250 250 250 249 249 248 248 248 248 248 248 249 249 249 249 249 249 248 248 248 248 247 247 247 247 247 247 247 247 247
261 260 259 259 258 257 256 255 254 253 253 252 252 251 251 250 250 250 250 250 250 249 249 249 249 250 249 249 249 248 248 248 248 248 249 249 250 249 249 249 248 248 248 247 247 247 247 247 247 247 247 247
261 261 260 260 259 259 258 257 256 255 254 253 253 252 252 251 250 250 250 249 249 249 249 249 249 249 249 249 249 248 248 248 248 248 248 248 249 250 249 249 249 248 248 247 247 247 247 247 247 247 247 247
261 261 260 260 259 259 258 258 257 257 256 255 254 253 252 252 251 251 250 250 250 249 249 249 248 248 248 248 248 248 247 247 247 247 248 248 248 249 249 249 249 249 248 248 247 247 247 247 247 247 247 247
261 260 260 259 259 258 258 257 257 257 256 256 255 254 254 253 252 252 252 251 251 250 250 249 249 249 248 248 248 247 247 247 247 247 247 247 247 248 248 249 249 249 249 248 248 247 247 247 247 247 247 247
260 260 259 259 258 258 257 257 256 256 256 256 256 255 255 254 253 253 252 252 251 251 250 250 250 249 249 249 248 248 247 247 247 247 246 246 246 247 247 247 248 248 249 249 248 248 247 247 247 247 247 247
260 260 260 259 258 258 258 258 258 257 257 257 256 256 255 255 255 254 253 252 252 251 251 250 250 250 249 249 249 248 248 247 247 247 246 246 246 246 246 246 246 247 247 248 248 248 247 247 247 247 247 247
260 260 260 260 260 259 259 259 258 258 258 258 258 257 256 256 255 254 254 253 252 252 251 250 250 250 250 249 249 248 248 248 247 247 246 246 246 246 246 246 246 246 246 247 247 247 247 247 247 247 247 247
261 260 260 260 261 261 260 260 259 259 259 259 258 258 258 257 256 255 254 253 252 252 251 251 250 250 250 250 249 249 249 248 248 248 247 246 246 245 245 246 245 245 245 246 246 246 246 247 246 246 247 246
263 262 262 261 261 261 261 260 260 259 259 258 258 258 258 257 256 255 254 253 253 252 252 251 251 251 251 250 250 249 249 249 249 249 248 248 247 246 245 245 245 245 245 245 245 245 245 246 246 246 246 247
264 263 263 262 261 261 260 260 259 258 258 257 257 257 257 257 256 255 255 254 253 253 253 252 252 252 251 251 250 250 250 249 249 249 249 249 248 247 246 245 245 245 245 244 244 245 245 245 245 246 246 246
263 263 262 262 261 260 259 258 257 257 256 255 255 255 255 255 255 255 254 254 253 252 252 252 251 251 251 250 250 250 250 249 249 248 248 248 248 248 248 247 246 245 245 245 244 244 244 244 244 245 246 246
263 263 262 262 261 261 259 258 257 256 255 254 253 253 253 253 253 253 252 252 252 252 251 250 250 250 249 249 249 249 249 248 248 247 247 247 247 247 248 247 247 246 246 245 244 243 243 243 244 244 244 245
265 265 264 264 263 262 261 260 259 258 257 256 254 253 253 253 253 252 252 251 251 251 250 249 249 248 248 248 248 248 247 247 247 246 246 246 246 246 246 247 247 246 246 246 245 244 243 243 243 243 243 244